North Andover, MA

12:13 PM EST on February 21, 2017 (GMT -0500)
Lawrence Municipal

Weather History for KLWM - February, 2013

Change the Weather History Date:

Saturday, February 23, 2013

  Actual Average Record
Temperature  
Mean Temperature 36 °F -  
Max Temperature 39 °F 43 °F 62 °F (1943)
Min Temperature 32 °F 22 °F -6 °F (1972)
Degree Days  
Heating Degree Days 30    
Moisture  
Dew Point 28 °F    
Average Humidity 76    
Maximum Humidity 92    
Minimum Humidity 65    
Precipitation  
Precipitation 0.03 in - - ()
Sea Level Pressure  
Sea Level Pressure 30.15 in    
Wind  
Wind Speed 2 mph (ENE)    
Max Wind Speed 8 mph    
Max Gust Speed -    
Visibility 8 miles    
Events Snow    
Averages and records for this station are not official NWS values.
T = Trace of Precipitation, MM = Missing Value Source: NWS Daily Summary

Daily Weather History Graph

Daily Weather History Graph

Search for Another Location

Airport or City:

Trip Planner

Search our weather history database for the weather conditions in past years. The results will help you decide how hot, cold, wet, or windy it might be!

Date:

Astronomy

Feb. 23, 2013 Rise Set
Actual Time 6:29 AM EST 5:26 PM EST
Civil Twilight 6:00 AM EST 5:55 PM EST
Nautical Twilight 5:28 AM EST 6:28 PM EST
Astronomical Twilight 4:55 AM EST 7:00 PM EST
Moon 3:32 PM EST (2/23) 4:51 AM EST (2/23)
Length of Visible Light 11h 54m
Length of Day
10h 57m
Waxing Gibbous, 95% of the Moon is Illuminated
Feb 23
Waxing Gibbous
Feb 25
Full
Mar 4
Last Quarter
Mar 11
New
Mar 19
First Quarter

Hourly Weather History & Observations

Time (EST) Temp. Windchill Dew Point Humidity Pressure Visibility Wind Dir Wind Speed Gust Speed Precip Events Conditions
12:54 AM 33.1 °F - 24.1 °F 70% 30.34 in 10.0 mi Calm Calm - N/A   Overcast
1:54 AM 32.0 °F - 24.1 °F 73% 30.32 in 10.0 mi Calm Calm - N/A   Overcast
2:54 AM 32.0 °F - 24.1 °F 73% 30.32 in 10.0 mi Calm Calm - N/A   Overcast
3:54 AM 33.1 °F - 24.1 °F 70% 30.30 in 10.0 mi Calm Calm - N/A   Overcast
4:36 AM 32.0 °F - 24.8 °F 75% 30.29 in 10.0 mi Calm Calm - N/A   Overcast
4:54 AM 33.1 °F - 24.1 °F 70% 30.29 in 10.0 mi Calm Calm - N/A   Overcast
5:54 AM 32.0 °F - 24.1 °F 73% 30.28 in 10.0 mi Calm Calm - N/A   Overcast
6:54 AM 33.8 °F - 24.8 °F 70% 30.26 in 10.0 mi Calm Calm - N/A   Overcast
7:22 AM 33.8 °F - 24.8 °F 70% 30.26 in 10.0 mi Calm Calm - N/A   Overcast
7:54 AM 33.1 °F - 25.0 °F 72% 30.27 in 10.0 mi Calm Calm - N/A   Overcast
8:24 AM 35.6 °F - 24.8 °F 65% 30.26 in 10.0 mi Calm Calm - N/A   Overcast
8:54 AM 36.0 °F - 26.1 °F 67% 30.26 in 10.0 mi Calm Calm - N/A   Overcast
9:54 AM 37.0 °F - 28.0 °F 70% 30.25 in 10.0 mi Calm Calm - N/A   Overcast
10:54 AM 37.9 °F 34.4 °F 27.0 °F 65% 30.22 in 10.0 mi SE 4.6 mph - N/A   Overcast
11:54 AM 37.9 °F 33.5 °F 27.0 °F 65% 30.19 in 10.0 mi SE 5.8 mph - N/A   Overcast
12:45 PM 37.4 °F 33.8 °F 28.4 °F 70% 30.16 in 10.0 mi Variable 4.6 mph - N/A   Overcast
12:54 PM 37.9 °F 34.4 °F 28.0 °F 68% 30.16 in 10.0 mi SE 4.6 mph - N/A   Overcast
1:54 PM 39.0 °F 35.7 °F 28.0 °F 65% 30.15 in 10.0 mi Variable 4.6 mph - N/A   Overcast
2:54 PM 37.9 °F 33.5 °F 28.0 °F 68% 30.14 in 10.0 mi SSE 5.8 mph - N/A   Overcast
3:54 PM 37.9 °F 33.5 °F 28.9 °F 70% 30.12 in 10.0 mi SE 5.8 mph - N/A   Overcast
4:54 PM 37.9 °F 32.7 °F 28.9 °F 70% 30.11 in 10.0 mi Variable 6.9 mph - N/A   Overcast
5:30 PM 37.4 °F 32.8 °F 28.4 °F 70% 30.09 in 10.0 mi ESE 5.8 mph - N/A   Overcast
5:54 PM 37.9 °F 34.4 °F 28.9 °F 70% 30.09 in 10.0 mi ESE 4.6 mph - N/A   Overcast
6:54 PM 36.0 °F - 30.0 °F 79% 30.07 in 10.0 mi Calm Calm - 0.00 in   Overcast
7:54 PM 35.1 °F - 30.9 °F 85% 30.06 in 7.0 mi Calm Calm - 0.00 in Snow Light Snow
8:03 PM 35.6 °F - 30.2 °F 81% 30.06 in 7.0 mi Calm Calm - 0.00 in Snow Light Snow
8:23 PM 35.6 °F - 30.2 °F 81% 30.05 in 5.0 mi Calm Calm - 0.00 in Snow Light Snow
8:38 PM 33.8 °F 30.8 °F 30.2 °F 87% 30.04 in 4.0 mi NNE 3.5 mph - 0.00 in Snow Light Snow
8:54 PM 34.0 °F 31.0 °F 30.9 °F 89% 30.04 in 3.0 mi NE 3.5 mph - 0.01 in Snow Light Snow
9:08 PM 33.8 °F 29.6 °F 30.2 °F 87% 30.03 in 3.0 mi North 4.6 mph - 0.00 in Snow Light Snow
9:54 PM 34.0 °F 31.0 °F 30.9 °F 89% 30.01 in 5.0 mi NE 3.5 mph - 0.00 in Snow Light Snow
10:15 PM 33.8 °F 28.6 °F 30.2 °F 87% 30.00 in 6.0 mi North 5.8 mph - 0.00 in   Overcast
10:54 PM 34.0 °F 28.0 °F 30.9 °F 89% 29.98 in 5.0 mi NE 6.9 mph - 0.00 in   Overcast
11:23 PM 33.8 °F 27.0 °F 30.2 °F 87% 29.97 in 1.8 mi NNE 8.1 mph - 0.01 in Snow Light Snow
11:45 PM 33.8 °F 28.6 °F 30.2 °F 87% 29.95 in 2.5 mi NE 5.8 mph - 0.02 in Snow Light Snow
11:54 PM 34.0 °F 28.8 °F 32.0 °F 92% 29.96 in 4.0 mi NE 5.8 mph - 0.02 in Snow Light Snow